Location: Larrial
(48.2758°N, 4.5331°W)
Time: 22:04:32
(UTC+00:00)

XW-2B - Visible Passes

Search period start: 05 December 2021 00:00
Search period end: 15 December 2021 00:00
Orbit: 504 x 522 km, 97.5° (Epoch: 05 December)

Date Brightness Start Highest point End Pass type
(mag) Time Alt. Az. Time Alt. Az. Time Alt. Az.
05 Dec ? 05:53:11 10° NNE 05:56:39 32° E 06:00:06 10° SSE visible
05 Dec ? 18:10:37 10° SSW 18:13:49 27° W 18:17:04 10° NW visible
06 Dec ? 05:37:53 10° NE 05:40:57 22° E 05:43:59 10° SSE visible
06 Dec ? 07:11:35 10° N 07:15:01 32° WNW 07:18:25 10° SW visible
06 Dec ? 17:54:35 10° SSW 17:58:07 39° W 18:01:42 10° NNW visible
07 Dec ? 05:22:51 10° NE 05:25:12 16° E 05:27:33 10° SE visible
07 Dec ? 06:55:48 10° N 06:59:28 47° WNW 07:03:08 10° SW visible
07 Dec ? 17:38:45 10° S 17:42:27 61° W 17:46:13 10° NNW visible
08 Dec ? 05:08:33 10° ENE 05:09:24 11° E 05:10:16 10° E visible
08 Dec ? 06:40:05 10° N 06:43:53 72° WNW 06:47:40 10° SSW visible
08 Dec ? 17:23:04 10° SSE 17:26:49 88° E 17:30:38 10° NNW visible
09 Dec ? 06:24:27 10° NNE 06:28:16 76° ESE 06:32:04 10° S visible
09 Dec ? 17:07:32 10° SSE 17:11:13 58° ENE 17:14:57 10° N visible
09 Dec ? 18:43:53 10° WSW 18:45:36 13° W 18:47:20 10° WNW visible
10 Dec ? 06:08:54 10° NNE 06:12:37 49° E 06:16:19 10° S visible
10 Dec ? 18:27:08 10° SW 18:29:50 18° W 18:32:32 10° NW visible
11 Dec ? 05:53:26 10° NNE 05:56:55 33° E 06:00:22 10° SSE visible
11 Dec ? 18:10:51 10° SSW 18:14:03 27° W 18:17:20 10° NW visible
12 Dec ? 05:38:07 10° NE 05:41:11 22° E 05:44:14 10° SSE visible
12 Dec ? 07:11:49 10° N 07:15:15 32° WNW 07:18:39 10° SW visible
12 Dec ? 17:54:47 10° SSW 17:58:20 39° W 18:01:56 10° NNW visible
13 Dec ? 05:23:03 10° NE 05:25:25 16° E 05:27:46 10° SE visible
13 Dec ? 06:56:00 10° N 06:59:41 47° WNW 07:03:20 10° SW visible
13 Dec ? 17:38:56 10° S 17:42:39 60° W 17:46:25 10° NNW visible
14 Dec ? 05:08:44 10° ENE 05:09:36 11° E 05:10:27 10° E visible
14 Dec ? 06:40:16 10° N 06:44:04 72° WNW 06:47:50 10° SSW visible
14 Dec ? 17:23:13 10° SSE 17:26:59 88° ENE 17:30:49 10° NNW visible
